| time (UTC) | temp F | wind direction | speed MPH | gust MPH | rain 1hr in | rain 24hr in | rain mn in | humidity % | barometer mb |
| 20260503173004 | 65 | 346 | 6.0 | 12.0 | 0.00 | 0.00 | 0.00 | 39 | 1010.3 |
| 20260503172003 | 66 | 298 | 6.0 | 11.0 | 0.00 | 0.00 | 0.00 | 39 | 1010.4 |
| 20260503171005 | 65 | 290 | 3.0 | 9.0 | 0.00 | 0.00 | 0.00 | 41 | 1010.6 |
| 20260503151004 | 59 | 336 | 4.0 | 9.0 | 0.00 | 0.00 | 0.00 | 52 | 1010.8 |
| 20260503131003 | 50 | 296 | 3.0 | 7.0 | 0.00 | 0.00 | 0.00 | 71 | 1010.3 |
| 20260503081003 | 52 | 315 | 3.0 | 7.0 | 0.00 | 0.00 | 0.00 | 64 | 1006.8 |
| 20260503072019 | 53 | 310 | 2.0 | 4.0 | 0.00 | 0.00 | 0.00 | 61 | 1006.6 |
| 20260503071004 | 53 | 288 | 2.0 | 3.0 | 0.00 | 0.00 | 0.00 | 60 | 1006.6 |
| 20260503055004 | 57 | 163 | 0.0 | 0.0 | 0.00 | 0.00 | 0.00 | 48 | 1006.6 |
| 20260503054004 | 58 | 157 | 1.0 | 4.0 | 0.00 | 0.00 | 0.00 | 46 | 1006.5 |
| 20260503053020 | 58 | 160 | 2.0 | 6.0 | 0.00 | 0.00 | 0.00 | 45 | 1006.5 |
| 20260503052004 | 59 | 167 | 3.0 | 5.0 | 0.00 | 0.00 | 0.00 | 44 | 1006.7 |
| 20260503051003 | 59 | 189 | 1.0 | 6.0 | 0.00 | 0.00 | 0.00 | 44 | 1006.6 |
| 20260503050007 | 59 | 196 | 2.0 | 8.0 | 0.00 | 0.00 | 0.00 | 44 | 1006.6 |
| 20260503045004 | 60 | 174 | 3.0 | 5.0 | 0.00 | 0.00 | 0.00 | 45 | 1006.7 |
| 20260503044005 | 60 | 220 | 2.0 | 4.0 | 0.00 | 0.00 | 0.00 | 43 | 1006.7 |
| 20260503043003 | 61 | 195 | 3.0 | 3.0 | 0.00 | 0.00 | 0.00 | 42 | 1006.8 |
| 20260503042004 | 62 | 174 | 2.0 | 6.0 | 0.00 | 0.00 | 0.00 | 43 | 1006.8 |
| 20260503041004 | 62 | 166 | 4.0 | 5.0 | 0.00 | 0.00 | 0.00 | 43 | 1006.9 |
| 20260503040019 | 61 | 217 | 5.0 | 12.0 | 0.00 | 0.00 | 0.00 | 46 | 1007.0 |
| 20260503035003 | 61 | 157 | 2.0 | 6.0 | 0.00 | 0.00 | 0.00 | 47 | 1007.1 |
| 20260503034004 | 62 | 165 | 1.0 | 5.0 | 0.00 | 0.00 | 0.00 | 49 | 1007.3 |
| 20260503033003 | 64 | 195 | 2.0 | 3.0 | 0.00 | 0.00 | 0.00 | 38 | 1007.7 |
| 20260503032003 | 64 | 210 | 1.0 | 5.0 | 0.00 | 0.00 | 0.00 | 38 | 1007.6 |
| 20260503031003 | 64 | 185 | 4.0 | 5.0 | 0.00 | 0.00 | 0.00 | 38 | 1007.6 |
| 20260503030003 | 64 | 170 | 1.0 | 5.0 | 0.00 | 0.00 | 0.00 | 40 | 1007.8 |
| 20260503025004 | 64 | 196 | 1.0 | 4.0 | 0.00 | 0.00 | 0.00 | 37 | 1008.0 |
| 20260503024003 | 64 | 217 | 1.0 | 2.0 | 0.00 | 0.00 | 0.00 | 37 | 1007.9 |
| 20260503023002 | 64 | 199 | 1.0 | 5.0 | 0.00 | 0.00 | 0.00 | 36 | 1008.0 |
| 20260503022003 | 64 | 159 | 2.0 | 9.0 | 0.00 | 0.00 | 0.00 | 35 | 1008.2 |
| 20260503021020 | 64 | 217 | 1.0 | 2.0 | 0.00 | 0.00 | 0.00 | 33 | 1008.8 |
| 20260503020019 | 64 | 145 | 0.0 | 1.0 | 0.00 | 0.00 | 0.00 | 34 | 1008.7 |
| 20260503015003 | 64 | 355 | 1.0 | 3.0 | 0.00 | 0.00 | 0.00 | 34 | 1008.8 |
| 20260503014020 | 64 | 157 | 0.0 | 0.0 | 0.00 | 0.00 | 0.00 | 36 | 1008.8 |
| 20260503013004 | 65 | 157 | 0.0 | 1.0 | 0.00 | 0.00 | 0.00 | 32 | 1008.8 |
| 20260503012003 | 65 | 220 | 1.0 | 1.0 | 0.00 | 0.00 | 0.00 | 34 | 1008.8 |
| 20260503011005 | 66 | 212 | 3.0 | 5.0 | 0.00 | 0.00 | 0.00 | 33 | 1008.5 |
| 20260503010002 | 66 | 180 | 2.0 | 6.0 | 0.00 | 0.00 | 0.00 | 32 | 1008.6 |
| 20260503005003 | 66 | 203 | 2.0 | 7.0 | 0.00 | 0.00 | 0.00 | 31 | 1008.8 |
| 20260503004003 | 67 | 165 | 1.0 | 4.0 | 0.00 | 0.00 | 0.00 | 32 | 1009.1 |
| 20260503003002 | 67 | 215 | 1.0 | 2.0 | 0.00 | 0.00 | 0.00 | 31 | 1009.4 |
| 20260503002004 | 67 | 210 | 1.0 | 5.0 | 0.00 | 0.00 | 0.00 | 31 | 1009.6 |
| 20260503001004 | 67 | 210 | 1.0 | 7.0 | 0.00 | 0.00 | 0.00 | 31 | 1010.0 |
| 20260503000004 | 67 | 219 | 0.0 | 1.0 | 0.00 | 0.00 | 0.00 | 31 | 1010.2 |
| 20260502235003 | 68 | 275 | 0.0 | 2.0 | 0.00 | 0.00 | 0.00 | 30 | 1010.2 |
| 20260502234002 | 68 | 265 | 2.0 | 10.0 | 0.00 | 0.00 | 0.00 | 31 | 1010.3 |
| 20260502233004 | 68 | 218 | 2.0 | 6.0 | 0.00 | 0.00 | 0.00 | 30 | 1010.5 |
| 20260502232002 | 68 | 259 | 1.0 | 5.0 | 0.00 | 0.00 | 0.00 | 30 | 1010.5 |
| 20260502231002 | 68 | 218 | 1.0 | 4.0 | 0.00 | 0.00 | 0.00 | 31 | 1010.7 |
| 20260502230005 | 67 | 224 | 1.0 | 2.0 | 0.00 | 0.00 | 0.00 | 32 | 1010.8 |
| 20260502225004 | 68 | 220 | 1.0 | 3.0 | 0.00 | 0.00 | 0.00 | 30 | 1010.9 |
| 20260502224003 | 68 | 218 | 1.0 | 3.0 | 0.00 | 0.00 | 0.00 | 30 | 1010.9 |
| 20260502223006 | 68 | 239 | 2.0 | 5.0 | 0.00 | 0.00 | 0.00 | 29 | 1011.1 |
| 20260502222004 | 68 | 254 | 3.0 | 6.0 | 0.00 | 0.00 | 0.00 | 29 | 1011.2 |
| 20260502221004 | 68 | 277 | 4.0 | 12.0 | 0.00 | 0.00 | 0.00 | 29 | 1011.2 |
| 20260502220004 | 69 | 228 | 1.0 | 6.0 | 0.00 | 0.00 | 0.00 | 30 | 1011.4 |
| 20260502215004 | 69 | 257 | 3.0 | 11.0 | 0.00 | 0.00 | 0.00 | 32 | 1011.6 |
| 20260502214004 | 68 | 236 | 4.0 | 7.0 | 0.00 | 0.00 | 0.00 | 30 | 1011.8 |
| 20260502213004 | 68 | 316 | 2.0 | 5.0 | 0.00 | 0.00 | 0.00 | 32 | 1011.8 |
| 20260502212004 | 68 | 316 | 2.0 | 12.0 | 0.00 | 0.00 | 0.00 | 31 | 1011.9 |
| 20260502211005 | 69 | 225 | 5.0 | 11.0 | 0.00 | 0.00 | 0.00 | 30 | 1012.0 |
| 20260502210004 | 69 | 217 | 5.0 | 7.0 | 0.00 | 0.00 | 0.00 | 31 | 1012.1 |
| 20260502205004 | 70 | 256 | 3.0 | 8.0 | 0.00 | 0.00 | 0.00 | 30 | 1012.3 |
| 20260502204003 | 70 | 296 | 1.0 | 2.0 | 0.00 | 0.00 | 0.00 | 31 | 1012.5 |
| 20260502203004 | 70 | 237 | 5.0 | 11.0 | 0.00 | 0.00 | 0.00 | 29 | 1012.6 |
| 20260502202004 | 69 | 265 | 3.0 | 6.0 | 0.00 | 0.00 | 0.00 | 32 | 1012.8 |
| 20260502201004 | 69 | 297 | 5.0 | 12.0 | 0.00 | 0.00 | 0.00 | 30 | 1013.0 |
| 20260502200003 | 68 | 267 | 3.0 | 8.0 | 0.00 | 0.00 | 0.00 | 30 | 1013.1 |
| 20260502195005 | 68 | 271 | 4.0 | 8.0 | 0.00 | 0.00 | 0.00 | 30 | 1013.3 |
| 20260502194018 | 68 | 294 | 3.0 | 8.0 | 0.00 | 0.00 | 0.00 | 30 | 1013.4 |
| 20260502193005 | 68 | 279 | 5.0 | 12.0 | 0.00 | 0.00 | 0.00 | 29 | 1013.7 |
| 20260502192018 | 68 | 301 | 5.0 | 10.0 | 0.00 | 0.00 | 0.00 | 29 | 1013.7 |
| 20260502191003 | 68 | 254 | 2.0 | 8.0 | 0.00 | 0.00 | 0.00 | 32 | 1014.0 |
| 20260502190004 | 68 | 270 | 5.0 | 9.0 | 0.00 | 0.00 | 0.00 | 30 | 1014.0 |
| 20260502185004 | 68 | 306 | 5.0 | 10.0 | 0.00 | 0.00 | 0.00 | 31 | 1014.1 |
| 20260502184003 | 68 | 292 | 4.0 | 10.0 | 0.00 | 0.00 | 0.00 | 32 | 1014.2 |
| 20260502183019 | 68 | 264 | 1.0 | 3.0 | 0.00 | 0.00 | 0.00 | 33 | 1014.5 |
| 20260502182004 | 68 | 334 | 2.0 | 4.0 | 0.00 | 0.00 | 0.00 | 35 | 1014.6 |
| 20260502181003 | 68 | 217 | 7.0 | 13.0 | 0.00 | 0.00 | 0.00 | 31 | 1014.7 |